DW4152 Weather Reports


Display with metric or nautical units.
time (UTC)temp
F
wind
direction
speed
MPH
gust
MPH
rain 1hr
in
rain 24hr
in
rain mn
in
humidity
%
barometer
mb
20260505073030 61 330 0.0 0.0 0.00 0.00 0.00 71 1014.0
20260505071528 61 330 0.0 0.0 0.00 0.00 0.00 70 1013.9
20260505070028 61 330 0.0 0.0 0.00 0.00 0.00 69 1013.8
20260505064525 61 317 0.0 0.0 0.00 0.00 0.00 68 1013.9
20260505063024 62 317 0.0 0.0 0.00 0.00 0.00 67 1013.9
20260505061523 62 317 0.0 1.0 0.00 0.00 0.00 66 1013.9
20260505060024 62 327 0.0 0.0 0.00 0.00 0.00 66 1013.9
20260505054522 63 327 0.0 1.0 0.00 0.00 0.00 65 1014.0
20260505053022 63 327 0.0 0.0 0.00 0.00 0.00 64 1013.9
20260505051515 64 327 0.0 0.0 0.00 0.00 0.00 63 1014.0
20260505041511 64 327 0.0 0.0 0.00 0.00 0.00 58 1014.0
20260505040018 64 327 0.0 0.0 0.00 0.00 0.00 57 1014.1
20260505034508 64 328 0.0 0.0 0.00 0.00 0.00 57 1014.1
20260505033013 64 328 0.0 1.0 0.00 0.00 0.00 58 1014.1
20260505031507 63 328 0.0 0.0 0.00 0.00 0.00 59 1014.1
20260505030014 61 328 0.0 0.0 0.00 0.00 0.00 62 1014.1
20260505024507 61 328 0.0 0.0 0.00 0.00 0.00 63 1014.0
20260505023005 61 328 0.0 0.0 0.00 0.00 0.00 62 1013.9
20260505021508 62 328 0.0 0.0 0.00 0.00 0.00 67 1013.9
20260505020008 62 328 0.0 0.0 0.00 0.00 0.00 68 1013.8
20260505014505 63 328 0.0 0.0 0.00 0.00 0.00 66 1013.7
20260505013004 64 328 0.0 1.0 0.00 0.00 0.00 62 1013.4
20260505011502 65 328 0.0 2.0 0.00 0.00 0.00 61 1013.1
20260505010002 66 328 0.0 1.0 0.00 0.00 0.00 53 1013.0
20260505004504 68 328 0.0 0.0 0.00 0.00 0.00 50 1012.8
20260505003002 70 328 0.0 1.0 0.00 0.00 0.00 48 1012.7
20260505001503 72 328 0.0 1.0 0.00 0.00 0.00 46 1012.7
20260505000109 73 328 0.0 1.0 0.00 0.00 0.00 45 1012.6
20260504234613 75 328 0.0 0.0 0.00 0.00 0.00 43 1012.5
20260504233102 75 328 0.0 0.0 0.00 0.00 0.00 40 1012.4
20260504231559 76 329 0.0 1.0 0.00 0.00 0.00 40 1012.4
20260504230059 77 329 0.0 2.0 0.00 0.00 0.00 39 1012.4
20260504224600 77 183 0.0 0.0 0.00 0.00 0.00 39 1012.4
20260504223058 78 277 0.0 0.0 0.00 0.00 0.00 37 1012.3
20260504221557 79 233 0.0 0.0 0.00 0.00 0.00 38 1012.3
20260504214558 79 254 0.0 0.0 0.00 0.00 0.00 37 1012.3
20260504213109 80 251 0.0 1.0 0.00 0.00 0.00 37 1012.3
20260504211556 80 253 0.0 0.0 0.00 0.00 0.00 38 1012.4
20260504210054 80 262 0.0 0.0 0.00 0.00 0.00 37 1012.3
20260504204601 81 285 0.0 0.0 0.00 0.00 0.00 36 1012.5
20260504203051 81 285 0.0 0.0 0.00 0.00 0.00 35 1012.6
20260504201550 82 246 0.0 0.0 0.00 0.00 0.00 35 1012.8
20260504200050 83 228 0.0 0.0 0.00 0.00 0.00 35 1012.9
20260504194547 82 248 0.0 0.0 0.00 0.00 0.00 34 1013.2
20260504193055 82 206 0.0 0.0 0.00 0.00 0.00 33 1013.5
20260504191542 82 228 0.0 0.0 0.00 0.00 0.00 35 1013.6
20260504190042 82 207 0.0 0.0 0.00 0.00 0.00 34 1013.9
20260504184542 81 213 0.0 0.0 0.00 0.00 0.00 34 1013.9
20260504183041 80 214 0.0 1.0 0.00 0.00 0.00 35 1014.0
20260504181536 80 244 0.0 0.0 0.00 0.00 0.00 35 1014.2
20260504180036 79 244 0.0 0.0 0.00 0.00 0.00 35 1014.2
20260504174528 78 168 0.0 0.0 0.00 0.00 0.00 35 1014.6
20260504173025 78 215 0.0 0.0 0.00 0.00 0.00 33 1014.6
20260504171522 77 184 0.0 1.0 0.00 0.00 0.00 34 1014.9
20260504100111 43 229 0.0 0.0 0.00 0.00 0.00 93 1016.6
20260504081546 44 229 0.0 0.0 0.00 0.00 0.00 91 1016.5